owner,sensor,date,latitude,longitude,vertical_datum,direction_of_sea_water_velocity,sea_water_speed,upward_sea_water_velocity,qcFlag 
COMPS,ioos:station:USF.COMPS:C10:1,2010-09-17T04:00:00Z,27.1690,-82.9260,4.0,253.30075576601,10.440306508911,-99999.0,'1111122,1111122,1199999999' 
COMPS,ioos:station:USF.COMPS:C10:1,2010-09-17T05:00:00Z,27.1690,-82.9260,4.0,282.52880770915,9.2195444572929,-99999.0,'1111122,1111122,1199999999' 
COMPS,ioos:station:USF.COMPS:C10:1,2010-09-17T06:00:00Z,27.1690,-82.9260,4.0,289.9831065219,11.70469991072,-99999.0,'1111122,1111122,1199999999' 
COMPS,ioos:station:USF.COMPS:C10:1,2010-09-17T07:00:00Z,27.1690,-82.9260,4.0,315.0,8.4852813742386,-99999.0,'1111122,1111122,1199999999' 
COMPS,ioos:station:USF.COMPS:C10:1,2010-09-17T08:00:00Z,27.1690,-82.9260,4.0,336.80140948635,7.6157731058639,-99999.0,'1111122,1111122,1199999999' 
COMPS,ioos:station:USF.COMPS:C10:1,2010-09-17T09:00:00Z,27.1690,-82.9260,4.0,344.05460409908,7.2801098892805,-99999.0,'1111122,1111122,1199999999' 
COMPS,ioos:station:USF.COMPS:C10:1,2010-09-17T10:00:00Z,27.1690,-82.9260,4.0,339.44395478042,8.5440037453175,-99999.0,'1111122,1111122,1199999999' 
COMPS,ioos:station:USF.COMPS:C10:1,2010-09-17T11:00:00Z,27.1690,-82.9260,4.0,303.69006752598,7.211102550928,-99999.0,'1111122,1111122,1199999999' 
COMPS,ioos:station:USF.COMPS:C10:1,2010-09-17T12:00:00Z,27.1690,-82.9260,4.0,308.65980825409,6.4031242374328,-99999.0,'1111122,1111122,1199999999' 
COMPS,ioos:station:USF.COMPS:C10:1,2010-09-17T13:00:00Z,27.1690,-82.9260,4.0,288.43494882292,6.3245553203368,-99999.0,'1111122,1111122,1199999999' 
COMPS,ioos:station:USF.COMPS:C10:1,2010-09-17T14:00:00Z,27.1690,-82.9260,4.0,275.7105931375,10.049875621121,-99999.0,'1111122,1111122,1199999999' 
COMPS,ioos:station:USF.COMPS:C10:1,2010-09-17T15:00:00Z,27.1690,-82.9260,4.0,279.46232220803,12.165525060596,-99999.0,'1111122,1111122,1199999999' 
COMPS,ioos:station:USF.COMPS:C10:1,2010-09-17T16:00:00Z,27.1690,-82.9260,4.0,274.08561677997,14.035668847618,-99999.0,'1111122,1111122,1199999999' 
COMPS,ioos:station:USF.COMPS:C10:1,2010-09-17T17:00:00Z,27.1690,-82.9260,4.0,273.81407483429,15.033296378373,-99999.0,'1111122,1111122,1199999999' 
COMPS,ioos:station:USF.COMPS:C10:1,2010-09-17T18:00:00Z,27.1690,-82.9260,4.0,288.43494882292,18.97366596101,-99999.0,'1111122,1111122,1199999999' 
COMPS,ioos:station:USF.COMPS:C10:1,2010-09-17T19:00:00Z,27.1690,-82.9260,4.0,290.55604521958,17.088007490635,-99999.0,'1111122,1111122,1199999999' 
COMPS,ioos:station:USF.COMPS:C10:1,2010-09-17T20:00:00Z,27.1690,-82.9260,4.0,299.35775354279,18.357559750686,-99999.0,'1111122,1111122,1199999999' 
COMPS,ioos:station:USF.COMPS:C10:1,2010-09-17T21:00:00Z,27.1690,-82.9260,4.0,296.56505117708,15.652475842499,-99999.0,'1111122,1111122,1199999999' 
COMPS,ioos:station:USF.COMPS:C10:1,2010-09-17T22:00:00Z,27.1690,-82.9260,4.0,291.03751102542,13.928388277184,-99999.0,'1111122,1111122,1199999999' 
COMPS,ioos:station:USF.COMPS:C10:1,2010-09-17T23:00:00Z,27.1690,-82.9260,4.0,275.7105931375,10.049875621121,-99999.0,'1111122,1111122,1199999999' 
COMPS,ioos:station:USF.COMPS:C10:1,2010-09-18T00:00:00Z,27.1690,-82.9260,4.0,225.0,5.6568542494924,-99999.0,'1111122,1111122,1199999999' 
COMPS,ioos:station:USF.COMPS:C10:1,2010-09-18T01:00:00Z,27.1690,-82.9260,4.0,262.8749836511,8.0622577482985,-99999.0,'1111122,1111122,1199999999' 
COMPS,ioos:station:USF.COMPS:C10:1,2010-09-18T02:00:00Z,27.1690,-82.9260,4.0,270.0,9.0,-99999.0,'1111122,1111122,1199999999' 
COMPS,ioos:station:USF.COMPS:C10:1,2010-09-18T03:00:00Z,27.1690,-82.9260,4.0,270.0,14.0,-99999.0,'1111122,1111122,1199999999' 
COMPS,ioos:station:USF.COMPS:C10:1,2010-09-18T04:00:00Z,27.1690,-82.9260,4.0,270.0,14.0,-99999.0,'1111122,1111122,1199999999' 
COMPS,ioos:station:USF.COMPS:C10:1,2010-09-18T05:00:00Z,27.1690,-82.9260,4.0,280.61965527616,16.2788205961,-99999.0,'1111122,1111122,1199999999' 
COMPS,ioos:station:USF.COMPS:C10:1,2010-09-18T06:00:00Z,27.1690,-82.9260,4.0,277.1250163489,16.124515496597,-99999.0,'1111122,1111122,1199999999' 
COMPS,ioos:station:USF.COMPS:C10:1,2010-09-18T07:00:00Z,27.1690,-82.9260,4.0,284.03624346793,12.369316876853,-99999.0,'1111122,1111122,1199999999' 
COMPS,ioos:station:USF.COMPS:C10:1,2010-09-18T08:00:00Z,27.1690,-82.9260,4.0,285.94539590092,7.2801098892805,-99999.0,'1111122,1111122,1199999999' 
COMPS,ioos:station:USF.COMPS:C10:1,2010-09-18T09:00:00Z,27.1690,-82.9260,4.0,315.0,5.6568542494924,-99999.0,'1111122,1111122,1199999999' 
COMPS,ioos:station:USF.COMPS:C10:1,2010-09-18T10:00:00Z,27.1690,-82.9260,4.0,300.96375653207,5.8309518948453,-99999.0,'1111122,1111122,1199999999' 
COMPS,ioos:station:USF.COMPS:C10:1,2010-09-18T11:00:00Z,27.1690,-82.9260,4.0,0.0,0.0,-99999.0,'1114422,1114422,1199999999' 
COMPS,ioos:station:USF.COMPS:C10:1,2010-09-18T12:00:00Z,27.1690,-82.9260,4.0,180.0,3.0,-99999.0,'1111122,1111122,1199999999' 
COMPS,ioos:station:USF.COMPS:C10:1,2010-09-18T13:00:00Z,27.1690,-82.9260,4.0,210.96375653207,5.8309518948453,-99999.0,'1111122,1111122,1199999999' 
COMPS,ioos:station:USF.COMPS:C10:1,2010-09-18T14:00:00Z,27.1690,-82.9260,4.0,206.56505117708,4.4721359549996,-99999.0,'1111122,1111122,1199999999' 
COMPS,ioos:station:USF.COMPS:C10:1,2010-09-18T15:00:00Z,27.1690,-82.9260,4.0,228.81407483429,10.630145812735,-99999.0,'1111122,1111122,1199999999' 
COMPS,ioos:station:USF.COMPS:C10:1,2010-09-18T16:00:00Z,27.1690,-82.9260,4.0,228.81407483429,10.630145812735,-99999.0,'1111122,1111122,1199999999' 
COMPS,ioos:station:USF.COMPS:C10:1,2010-09-18T17:00:00Z,27.1690,-82.9260,4.0,233.13010235416,15.0,-99999.0,'1111122,1111122,1199999999' 
COMPS,ioos:station:USF.COMPS:C10:1,2010-09-18T18:00:00Z,27.1690,-82.9260,4.0,246.80140948635,15.231546211728,-99999.0,'1111122,1111122,1199999999' 
COMPS,ioos:station:USF.COMPS:C10:1,2010-09-18T19:00:00Z,27.1690,-82.9260,4.0,265.601294645,13.038404810405,-99999.0,'1111122,1111122,1199999999' 
COMPS,ioos:station:USF.COMPS:C10:1,2010-09-18T20:00:00Z,27.1690,-82.9260,4.0,270.0,12.0,-99999.0,'1111122,1111122,1199999999' 
COMPS,ioos:station:USF.COMPS:C10:1,2010-09-18T21:00:00Z,27.1690,-82.9260,4.0,280.30484646877,11.180339887499,-99999.0,'1111122,1111122,1199999999' 
COMPS,ioos:station:USF.COMPS:C10:1,2010-09-18T22:00:00Z,27.1690,-82.9260,4.0,270.0,9.0,-99999.0,'1111122,1111122,1199999999' 
COMPS,ioos:station:USF.COMPS:C10:1,2010-09-18T23:00:00Z,27.1690,-82.9260,4.0,263.65980825409,9.0553851381374,-99999.0,'1111122,1111122,1199999999' 
COMPS,ioos:station:USF.COMPS:C10:1,2010-09-19T00:00:00Z,27.1690,-82.9260,4.0,225.0,5.6568542494924,-99999.0,'1111122,1111122,1199999999' 
COMPS,ioos:station:USF.COMPS:C10:1,2010-09-19T01:00:00Z,27.1690,-82.9260,4.0,270.0,10.0,-99999.0,'1111122,1111122,1199999999' 
COMPS,ioos:station:USF.COMPS:C10:1,2010-09-19T02:00:00Z,27.1690,-82.9260,4.0,246.03751102542,9.8488578017961,-99999.0,'1111122,1111122,1199999999' 
COMPS,ioos:station:USF.COMPS:C10:1,2010-09-19T03:00:00Z,27.1690,-82.9260,4.0,259.69515353123,11.180339887499,-99999.0,'1111122,1111122,1199999999' 
COMPS,ioos:station:USF.COMPS:C10:1,2010-09-19T04:00:00Z,27.1690,-82.9260,4.0,257.47119229085,9.2195444572929,-99999.0,'1111122,1111122,1199999999' 
COMPS,ioos:station:USF.COMPS:C10:1,2010-09-19T05:00:00Z,27.1690,-82.9260,4.0,249.44395478042,8.5440037453175,-99999.0,'1111122,1111122,1199999999' 
COMPS,ioos:station:USF.COMPS:C10:1,2010-09-19T06:00:00Z,27.1690,-82.9260,4.0,251.56505117708,6.3245553203368,-99999.0,'1111122,1111122,1199999999' 
COMPS,ioos:station:USF.COMPS:C10:1,2010-09-19T07:00:00Z,27.1690,-82.9260,4.0,236.30993247402,7.211102550928,-99999.0,'1111122,1111122,1199999999' 
COMPS,ioos:station:USF.COMPS:C10:1,2010-09-19T08:00:00Z,27.1690,-82.9260,4.0,231.34019174591,6.4031242374328,-99999.0,'1111122,1111122,1199999999' 
COMPS,ioos:station:USF.COMPS:C10:1,2010-09-19T09:00:00Z,27.1690,-82.9260,4.0,225.0,2.8284271247462,-99999.0,'1111122,1111122,1199999999' 
COMPS,ioos:station:USF.COMPS:C10:1,2010-09-19T10:00:00Z,27.1690,-82.9260,4.0,206.56505117708,2.2360679774998,-99999.0,'1111122,1111122,1199999999' 
COMPS,ioos:station:USF.COMPS:C10:1,2010-09-19T11:00:00Z,27.1690,-82.9260,4.0,180.0,4.0,-99999.0,'1111122,1111122,1199999999' 
COMPS,ioos:station:USF.COMPS:C10:1,2010-09-19T12:00:00Z,27.1690,-82.9260,4.0,206.56505117708,2.2360679774998,-99999.0,'1111122,1111122,1199999999' 
COMPS,ioos:station:USF.COMPS:C10:1,2010-09-19T13:00:00Z,27.1690,-82.9260,4.0,158.19859051365,5.3851648071345,-99999.0,'1111122,1111122,1199999999' 
COMPS,ioos:station:USF.COMPS:C10:1,2010-09-19T16:00:00Z,27.1690,-82.9260,4.0,183.36646066343,17.029386365926,-99999.0,'1111122,1111122,1199999999' 
COMPS,ioos:station:USF.COMPS:C10:1,2010-09-19T17:00:00Z,27.1690,-82.9260,4.0,184.08561677997,14.035668847618,-99999.0,'1111122,1111122,1199999999' 
COMPS,ioos:station:USF.COMPS:C10:1,2010-09-19T18:00:00Z,27.1690,-82.9260,4.0,196.38954033403,17.720045146669,-99999.0,'1111122,1111122,1199999999' 
COMPS,ioos:station:USF.COMPS:C10:1,2010-09-19T19:00:00Z,27.1690,-82.9260,4.0,194.03624346793,12.369316876853,-99999.0,'1111122,1111122,1199999999' 
COMPS,ioos:station:USF.COMPS:C10:1,2010-09-19T20:00:00Z,27.1690,-82.9260,4.0,204.77514056883,14.317821063276,-99999.0,'1111122,1111122,1199999999' 
COMPS,ioos:station:USF.COMPS:C10:1,2010-09-19T21:00:00Z,27.1690,-82.9260,4.0,202.61986494804,13.0,-99999.0,'1111122,1111122,1199999999' 
COMPS,ioos:station:USF.COMPS:C10:1,2010-09-19T22:00:00Z,27.1690,-82.9260,4.0,184.398705355,13.038404810405,-99999.0,'1111122,1111122,1199999999' 
COMPS,ioos:station:USF.COMPS:C10:1,2010-09-19T23:00:00Z,27.1690,-82.9260,4.0,173.65980825409,18.110770276275,-99999.0,'1111122,1111122,1199999999' 
COMPS,ioos:station:USF.COMPS:C10:1,2010-09-20T00:00:00Z,27.1690,-82.9260,4.0,165.06858282186,15.52417469626,-99999.0,'1111122,1111122,1199999999' 
COMPS,ioos:station:USF.COMPS:C10:1,2010-09-20T01:00:00Z,27.1690,-82.9260,4.0,180.0,19.0,-99999.0,'1111122,1111122,1199999999' 
COMPS,ioos:station:USF.COMPS:C10:1,2010-09-20T02:00:00Z,27.1690,-82.9260,4.0,189.46232220803,18.248287590895,-99999.0,'1111122,1111122,1199999999' 
COMPS,ioos:station:USF.COMPS:C10:1,2010-09-20T03:00:00Z,27.1690,-82.9260,4.0,190.00797980144,17.262676501632,-99999.0,'1111122,1111122,1199999999' 
COMPS,ioos:station:USF.COMPS:C10:1,2010-09-20T04:00:00Z,27.1690,-82.9260,4.0,195.52411099675,18.681541692269,-99999.0,'1111122,1111122,1199999999' 
COMPS,ioos:station:USF.COMPS:C10:1,2010-09-20T05:00:00Z,27.1690,-82.9260,4.0,208.07248693585,17.0,-99999.0,'1111122,1111122,1199999999' 
COMPS,ioos:station:USF.COMPS:C10:1,2010-09-20T06:00:00Z,27.1690,-82.9260,4.0,206.56505117708,13.416407864999,-99999.0,'1111122,1111122,1199999999' 
COMPS,ioos:station:USF.COMPS:C10:1,2010-09-20T07:00:00Z,27.1690,-82.9260,4.0,208.61045966597,12.529964086142,-99999.0,'1111122,1111122,1199999999' 
COMPS,ioos:station:USF.COMPS:C10:1,2010-09-20T08:00:00Z,27.1690,-82.9260,4.0,198.43494882292,9.4868329805051,-99999.0,'1111122,1111122,1199999999' 
COMPS,ioos:station:USF.COMPS:C10:1,2010-09-20T09:00:00Z,27.1690,-82.9260,4.0,187.1250163489,8.0622577482985,-99999.0,'1111122,1111122,1199999999' 
COMPS,ioos:station:USF.COMPS:C10:1,2010-09-20T10:00:00Z,27.1690,-82.9260,4.0,161.56505117708,6.3245553203368,-99999.0,'1111122,1111122,1199999999' 
COMPS,ioos:station:USF.COMPS:C10:1,2010-09-20T11:00:00Z,27.1690,-82.9260,4.0,153.43494882292,6.7082039324994,-99999.0,'1111122,1111122,1199999999' 
COMPS,ioos:station:USF.COMPS:C10:1,2010-09-20T12:00:00Z,27.1690,-82.9260,4.0,135.0,11.313708498985,-99999.0,'1111122,1111122,1199999999' 
COMPS,ioos:station:USF.COMPS:C10:1,2010-09-20T13:00:00Z,27.1690,-82.9260,4.0,138.36646066343,12.041594578792,-99999.0,'1111122,1111122,1199999999' 
COMPS,ioos:station:USF.COMPS:C10:1,2010-09-20T14:00:00Z,27.1690,-82.9260,4.0,146.30993247402,14.422205101856,-99999.0,'1111122,1111122,1199999999' 
COMPS,ioos:station:USF.COMPS:C10:1,2010-09-20T15:00:00Z,27.1690,-82.9260,4.0,158.19859051365,16.155494421404,-99999.0,'1111122,1111122,1199999999' 
COMPS,ioos:station:USF.COMPS:C10:1,2010-09-20T16:00:00Z,27.1690,-82.9260,4.0,172.8749836511,16.124515496597,-99999.0,'1111122,1111122,1199999999' 
COMPS,ioos:station:USF.COMPS:C10:1,2010-09-20T17:00:00Z,27.1690,-82.9260,4.0,180.0,16.0,-99999.0,'1111122,1111122,1199999999' 
COMPS,ioos:station:USF.COMPS:C10:1,2010-09-20T18:00:00Z,27.1690,-82.9260,4.0,184.76364169073,12.041594578792,-99999.0,'1111122,1111122,1199999999' 
COMPS,ioos:station:USF.COMPS:C10:1,2010-09-20T19:00:00Z,27.1690,-82.9260,4.0,201.03751102542,13.928388277184,-99999.0,'1111122,1111122,1199999999' 
COMPS,ioos:station:USF.COMPS:C10:1,2010-09-20T20:00:00Z,27.1690,-82.9260,4.0,206.56505117708,8.9442719099992,-99999.0,'1111122,1111122,1199999999' 
COMPS,ioos:station:USF.COMPS:C10:1,2010-09-20T21:00:00Z,27.1690,-82.9260,4.0,213.69006752598,7.211102550928,-99999.0,'1111122,1111122,1199999999' 
COMPS,ioos:station:USF.COMPS:C10:1,2010-09-20T22:00:00Z,27.1690,-82.9260,4.0,206.56505117708,2.2360679774998,-99999.0,'1111122,1111122,1199999999' 
COMPS,ioos:station:USF.COMPS:C10:1,2010-09-20T23:00:00Z,27.1690,-82.9260,4.0,251.56505117708,3.1622776601684,-99999.0,'1111122,1111122,1199999999' 
COMPS,ioos:station:USF.COMPS:C10:1,2010-09-21T00:00:00Z,27.1690,-82.9260,4.0,233.13010235416,5.0,-99999.0,'1111122,1111122,1199999999' 
COMPS,ioos:station:USF.COMPS:C10:1,2010-09-21T01:00:00Z,27.1690,-82.9260,4.0,225.0,1.4142135623731,-99999.0,'1111122,1111122,1199999999' 
COMPS,ioos:station:USF.COMPS:C10:1,2010-09-21T02:00:00Z,27.1690,-82.9260,4.0,225.0,5.6568542494924,-99999.0,'1111122,1111122,1199999999' 
COMPS,ioos:station:USF.COMPS:C10:1,2010-09-21T03:00:00Z,27.1690,-82.9260,4.0,231.34019174591,6.4031242374328,-99999.0,'1111122,1111122,1199999999' 
COMPS,ioos:station:USF.COMPS:C10:1,2010-09-21T04:00:00Z,27.1690,-82.9260,4.0,206.56505117708,11.180339887499,-99999.0,'1111122,1111122,1199999999' 
COMPS,ioos:station:USF.COMPS:C10:1,2010-09-21T05:00:00Z,27.1690,-82.9260,4.0,253.30075576601,10.440306508911,-99999.0,'1111122,1111122,1199999999' 
COMPS,ioos:station:USF.COMPS:C10:1,2010-09-21T06:00:00Z,27.1690,-82.9260,4.0,237.52880770915,13.038404810405,-99999.0,'1111122,1111122,1199999999' 
COMPS,ioos:station:USF.COMPS:C10:1,2010-09-21T07:00:00Z,27.1690,-82.9260,4.0,262.8749836511,8.0622577482985,-99999.0,'1111122,1111122,1199999999' 
COMPS,ioos:station:USF.COMPS:C10:1,2010-09-21T08:00:00Z,27.1690,-82.9260,4.0,260.53767779197,6.0827625302982,-99999.0,'1111122,1111122,1199999999' 
COMPS,ioos:station:USF.COMPS:C10:1,2010-09-21T09:00:00Z,27.1690,-82.9260,4.0,284.03624346793,8.2462112512353,-99999.0,'1111122,1111122,1199999999' 
COMPS,ioos:station:USF.COMPS:C10:1,2010-09-21T10:00:00Z,27.1690,-82.9260,4.0,326.30993247402,3.605551275464,-99999.0,'1111122,1111122,1199999999' 
COMPS,ioos:station:USF.COMPS:C10:1,2010-09-21T11:00:00Z,27.1690,-82.9260,4.0,338.19859051365,5.3851648071345,-99999.0,'1111122,1111122,1199999999' 
COMPS,ioos:station:USF.COMPS:C10:1,2010-09-21T13:00:00Z,27.1690,-82.9260,4.0,315.0,1.4142135623731,-99999.0,'1111122,1111122,1199999999' 
COMPS,ioos:station:USF.COMPS:C10:1,2010-09-21T14:00:00Z,27.1690,-82.9260,4.0,0.0,0.0,-99999.0,'1114422,1114422,1199999999' 
COMPS,ioos:station:USF.COMPS:C10:1,2010-09-21T15:00:00Z,27.1690,-82.9260,4.0,239.03624346793,5.8309518948453,-99999.0,'1111122,1111122,1199999999' 
COMPS,ioos:station:USF.COMPS:C10:1,2010-09-21T16:00:00Z,27.1690,-82.9260,4.0,213.69006752598,3.605551275464,-99999.0,'1111122,1111122,1199999999' 
COMPS,ioos:station:USF.COMPS:C10:1,2010-09-21T17:00:00Z,27.1690,-82.9260,4.0,219.80557109227,7.8102496759067,-99999.0,'1111122,1111122,1199999999' 
COMPS,ioos:station:USF.COMPS:C10:1,2010-09-21T18:00:00Z,27.1690,-82.9260,4.0,232.1250163489,11.401754250991,-99999.0,'1111122,1111122,1199999999' 
COMPS,ioos:station:USF.COMPS:C10:1,2010-09-21T19:00:00Z,27.1690,-82.9260,4.0,237.99461679192,9.4339811320566,-99999.0,'1111122,1111122,1199999999' 
COMPS,ioos:station:USF.COMPS:C10:1,2010-09-21T20:00:00Z,27.1690,-82.9260,4.0,251.56505117708,9.4868329805051,-99999.0,'1111122,1111122,1199999999' 
COMPS,ioos:station:USF.COMPS:C10:1,2010-09-21T22:00:00Z,27.1690,-82.9260,4.0,260.53767779197,6.0827625302982,-99999.0,'1111122,1111122,1199999999' 
COMPS,ioos:station:USF.COMPS:C10:1,2010-09-21T23:00:00Z,27.1690,-82.9260,4.0,225.0,2.8284271247462,-99999.0,'1111122,1111122,1199999999' 
COMPS,ioos:station:USF.COMPS:C10:1,2010-09-22T00:00:00Z,27.1690,-82.9260,4.0,270.0,5.0,-99999.0,'1111122,1111122,1199999999' 
COMPS,ioos:station:USF.COMPS:C10:1,2010-09-22T01:00:00Z,27.1690,-82.9260,4.0,18.434948822922,3.1622776601684,-99999.0,'1111122,1111122,1199999999' 
COMPS,ioos:station:USF.COMPS:C10:1,2010-09-22T02:00:00Z,27.1690,-82.9260,4.0,270.0,1.0,-99999.0,'1113322,1111122,1199999999' 
COMPS,ioos:station:USF.COMPS:C10:1,2010-09-22T03:00:00Z,27.1690,-82.9260,4.0,180.0,9.0,-99999.0,'1111122,1111122,1199999999' 
COMPS,ioos:station:USF.COMPS:C10:1,2010-09-22T04:00:00Z,27.1690,-82.9260,4.0,216.86989764584,5.0,-99999.0,'1111122,1111122,1199999999' 
COMPS,ioos:station:USF.COMPS:C10:1,2010-09-22T05:00:00Z,27.1690,-82.9260,4.0,225.0,9.8994949366117,-99999.0,'1111122,1111122,1199999999' 
COMPS,ioos:station:USF.COMPS:C10:1,2010-09-22T06:00:00Z,27.1690,-82.9260,4.0,263.65980825409,9.0553851381374,-99999.0,'1111122,1111122,1199999999' 
COMPS,ioos:station:USF.COMPS:C10:1,2010-09-22T07:00:00Z,27.1690,-82.9260,4.0,243.43494882292,4.4721359549996,-99999.0,'1111122,1111122,1199999999' 
COMPS,ioos:station:USF.COMPS:C10:1,2010-09-22T08:00:00Z,27.1690,-82.9260,4.0,296.56505117708,6.7082039324994,-99999.0,'1111122,1111122,1199999999' 
COMPS,ioos:station:USF.COMPS:C10:1,2010-09-22T09:00:00Z,27.1690,-82.9260,4.0,291.80140948635,5.3851648071345,-99999.0,'1111122,1111122,1199999999' 
COMPS,ioos:station:USF.COMPS:C10:1,2010-09-22T10:00:00Z,27.1690,-82.9260,4.0,315.0,5.6568542494924,-99999.0,'1111122,1111122,1199999999' 
COMPS,ioos:station:USF.COMPS:C10:1,2010-09-22T11:00:00Z,27.1690,-82.9260,4.0,315.0,2.8284271247462,-99999.0,'1111122,1111122,1199999999' 
COMPS,ioos:station:USF.COMPS:C10:1,2010-09-22T12:00:00Z,27.1690,-82.9260,4.0,0.0,5.0,-99999.0,'1111122,1114422,1199999999' 
COMPS,ioos:station:USF.COMPS:C10:1,2010-09-22T13:00:00Z,27.1690,-82.9260,4.0,26.565051177078,4.4721359549996,-99999.0,'1111122,1111122,1199999999' 
COMPS,ioos:station:USF.COMPS:C10:1,2010-09-22T15:00:00Z,27.1690,-82.9260,4.0,243.43494882292,2.2360679774998,-99999.0,'1111122,1111122,1199999999' 
COMPS,ioos:station:USF.COMPS:C10:1,2010-09-22T16:00:00Z,27.1690,-82.9260,4.0,180.0,1.0,-99999.0,'1113322,1111122,1199999999' 
COMPS,ioos:station:USF.COMPS:C10:1,2010-09-22T17:00:00Z,27.1690,-82.9260,4.0,215.53767779197,8.6023252670426,-99999.0,'1111122,1111122,1199999999' 
COMPS,ioos:station:USF.COMPS:C10:1,2010-09-22T18:00:00Z,27.1690,-82.9260,4.0,237.99461679192,9.4339811320566,-99999.0,'1111122,1111122,1199999999' 
COMPS,ioos:station:USF.COMPS:C10:1,2010-09-22T19:00:00Z,27.1690,-82.9260,4.0,243.43494882292,11.180339887499,-99999.0,'1111122,1111122,1199999999' 
COMPS,ioos:station:USF.COMPS:C10:1,2010-09-22T20:00:00Z,27.1690,-82.9260,4.0,240.25511870306,8.0622577482985,-99999.0,'1111122,1111122,1199999999' 
COMPS,ioos:station:USF.COMPS:C10:1,2010-09-22T21:00:00Z,27.1690,-82.9260,4.0,240.25511870306,8.0622577482985,-99999.0,'1111122,1111122,1199999999' 
COMPS,ioos:station:USF.COMPS:C10:1,2010-09-22T22:00:00Z,27.1690,-82.9260,4.0,254.05460409908,7.2801098892805,-99999.0,'1111122,1111122,1199999999' 
COMPS,ioos:station:USF.COMPS:C10:1,2010-09-22T23:00:00Z,27.1690,-82.9260,4.0,236.30993247402,7.211102550928,-99999.0,'1111122,1111122,1199999999' 
COMPS,ioos:station:USF.COMPS:C10:1,2010-09-23T00:00:00Z,27.1690,-82.9260,4.0,243.43494882292,2.2360679774998,-99999.0,'1111122,1111122,1199999999' 
COMPS,ioos:station:USF.COMPS:C10:1,2010-09-23T01:00:00Z,27.1690,-82.9260,4.0,180.0,2.0,-99999.0,'1111122,1111122,1199999999' 
COMPS,ioos:station:USF.COMPS:C10:1,2010-09-23T02:00:00Z,27.1690,-82.9260,4.0,180.0,3.0,-99999.0,'1111122,1111122,1199999999' 
COMPS,ioos:station:USF.COMPS:C10:1,2010-09-23T03:00:00Z,27.1690,-82.9260,4.0,180.0,3.0,-99999.0,'1111122,1111122,1199999999' 
COMPS,ioos:station:USF.COMPS:C10:1,2010-09-23T04:00:00Z,27.1690,-82.9260,4.0,225.0,4.2426406871193,-99999.0,'1111122,1111122,1199999999' 
COMPS,ioos:station:USF.COMPS:C10:1,2010-09-23T05:00:00Z,27.1690,-82.9260,4.0,191.30993247402,5.0990195135928,-99999.0,'1111122,1111122,1199999999' 
COMPS,ioos:station:USF.COMPS:C10:1,2010-09-23T06:00:00Z,27.1690,-82.9260,4.0,225.0,7.0710678118655,-99999.0,'1111122,1111122,1199999999' 
COMPS,ioos:station:USF.COMPS:C10:1,2010-09-23T07:00:00Z,27.1690,-82.9260,4.0,270.0,8.0,-99999.0,'1111122,1111122,1199999999' 
COMPS,ioos:station:USF.COMPS:C10:1,2010-09-23T08:00:00Z,27.1690,-82.9260,4.0,270.0,8.0,-99999.0,'1111122,1111122,1199999999' 
COMPS,ioos:station:USF.COMPS:C10:1,2010-09-23T09:00:00Z,27.1690,-82.9260,4.0,243.43494882292,6.7082039324994,-99999.0,'1111122,1111122,1199999999' 
COMPS,ioos:station:USF.COMPS:C10:1,2010-09-23T10:00:00Z,27.1690,-82.9260,4.0,315.0,4.2426406871193,-99999.0,'1111122,1111122,1199999999' 
COMPS,ioos:station:USF.COMPS:C10:1,2010-09-23T11:00:00Z,27.1690,-82.9260,4.0,285.94539590092,7.2801098892805,-99999.0,'1111122,1111122,1199999999' 
COMPS,ioos:station:USF.COMPS:C10:1,2010-09-23T12:00:00Z,27.1690,-82.9260,4.0,344.05460409908,7.2801098892805,-99999.0,'1111122,1111122,1199999999' 
COMPS,ioos:station:USF.COMPS:C10:1,2010-09-23T13:00:00Z,27.1690,-82.9260,4.0,345.96375653207,4.1231056256177,-99999.0,'1111122,1111122,1199999999' 
COMPS,ioos:station:USF.COMPS:C10:1,2010-09-23T14:00:00Z,27.1690,-82.9260,4.0,333.43494882292,2.2360679774998,-99999.0,'1111122,1111122,1199999999' 
COMPS,ioos:station:USF.COMPS:C10:1,2010-09-23T15:00:00Z,27.1690,-82.9260,4.0,0.0,0.0,-99999.0,'1114422,1114422,1199999999' 
COMPS,ioos:station:USF.COMPS:C10:1,2010-09-23T16:00:00Z,27.1690,-82.9260,4.0,206.56505117708,4.4721359549996,-99999.0,'1111122,1111122,1199999999' 
COMPS,ioos:station:USF.COMPS:C10:1,2010-09-23T17:00:00Z,27.1690,-82.9260,4.0,233.13010235416,5.0,-99999.0,'1111122,1111122,1199999999' 
COMPS,ioos:station:USF.COMPS:C10:1,2010-09-23T18:00:00Z,27.1690,-82.9260,4.0,246.80140948635,7.6157731058639,-99999.0,'1111122,1111122,1199999999' 
COMPS,ioos:station:USF.COMPS:C10:1,2010-09-23T19:00:00Z,27.1690,-82.9260,4.0,249.44395478042,8.5440037453175,-99999.0,'1111122,1111122,1199999999' 
COMPS,ioos:station:USF.COMPS:C10:1,2010-09-23T20:00:00Z,27.1690,-82.9260,4.0,257.47119229085,9.2195444572929,-99999.0,'1111122,1111122,1199999999' 
COMPS,ioos:station:USF.COMPS:C10:1,2010-09-23T21:00:00Z,27.1690,-82.9260,4.0,279.46232220803,12.165525060596,-99999.0,'1111122,1111122,1199999999' 
COMPS,ioos:station:USF.COMPS:C10:1,2010-09-23T22:00:00Z,27.1690,-82.9260,4.0,308.65980825409,12.806248474866,-99999.0,'1111122,1111122,1199999999' 
COMPS,ioos:station:USF.COMPS:C10:1,2010-09-23T23:00:00Z,27.1690,-82.9260,4.0,333.43494882292,11.180339887499,-99999.0,'1111122,1111122,1199999999' 
COMPS,ioos:station:USF.COMPS:C10:1,2010-09-24T00:00:00Z,27.1690,-82.9260,4.0,315.0,4.2426406871193,-99999.0,'1111122,1111122,1199999999' 
COMPS,ioos:station:USF.COMPS:C10:1,2010-09-24T01:00:00Z,27.1690,-82.9260,4.0,341.56505117708,6.3245553203368,-99999.0,'1111122,1111122,1199999999' 
COMPS,ioos:station:USF.COMPS:C10:1,2010-09-24T02:00:00Z,27.1690,-82.9260,4.0,348.69006752598,5.0990195135928,-99999.0,'1111122,1111122,1199999999' 
COMPS,ioos:station:USF.COMPS:C10:1,2010-09-24T03:00:00Z,27.1690,-82.9260,4.0,0.0,2.0,-99999.0,'1111122,1114422,1199999999' 
COMPS,ioos:station:USF.COMPS:C10:1,2010-09-24T04:00:00Z,27.1690,-82.9260,4.0,270.0,2.0,-99999.0,'1111122,1111122,1199999999' 
COMPS,ioos:station:USF.COMPS:C10:1,2010-09-24T05:00:00Z,27.1690,-82.9260,4.0,251.56505117708,3.1622776601684,-99999.0,'1111122,1111122,1199999999' 
COMPS,ioos:station:USF.COMPS:C10:1,2010-09-24T06:00:00Z,27.1690,-82.9260,4.0,236.30993247402,7.211102550928,-99999.0,'1111122,1111122,1199999999' 